Thunder radar more information blitzortung!


Rain radar more information rain snow radar


Equipment we use:

Davis VP2

Weather Display

BareMetal


Weather Underground History page Text

Daily Summary for January 22, 2018 Units:  Metric    English   Both
« Previous Day
Next Day »
Daily Weekly Monthly Yearly Custom
  Current: High: Low: Average:
Temperature: 5.9 °C 9.4 °C 5.4 °C 7.1 °C
Dew Point: 4.4 °C 5.7 °C 4.2 °C 5 °C
Humidity: 90 % 95 % 74 % 87 %
Wind Speed: 77.2 km/h 77.2 km/h 77.2 km/h 77.2 km/h
Wind Gust: 77.2 km/h 77.2 km/h - -
Wind:ENE - - SSE
Pressure: 1024.3 hPa 1024.9 hPa 1015.1 hPa -
Precipitation: 2.3 mm      
Historical Graphs
 
 
Tabular Data for January 22, 2018
Time Temperature Dew Point Pressure Wind Wind Speed Wind Gust Humidity Rainfall Rate (Hourly)
00:10 6.6 °C 5.1 °C 1015.1 hPa SSE 77.2 km/h 77.2 km/h 90 % 0.3 mm
00:15 6.6 °C 5.1 °C 1015.1 hPa SE 77.2 km/h 77.2 km/h 90 % 0.3 mm
00:20 6.6 °C 5.1 °C 1015.5 hPa SSE 77.2 km/h 77.2 km/h 90 % 0.3 mm
00:30 6.7 °C 5.3 °C 1015.5 hPa South 77.2 km/h 77.2 km/h 91 % 0.0 mm
00:40 6.9 °C 5.4 °C 1015.5 hPa SSE 77.2 km/h 77.2 km/h 90 % 0.0 mm
00:46 6.9 °C 5.4 °C 1015.8 hPa SSE 77.2 km/h 77.2 km/h 90 % 0.0 mm
00:56 7.0 °C 5.4 °C 1015.8 hPa SSE 77.2 km/h 77.2 km/h 90 % 0.0 mm
01:01 7.1 °C 5.5 °C 1015.8 hPa SSE 77.2 km/h 77.2 km/h 90 % 0.0 mm
01:11 7.1 °C 5.4 °C 1015.8 hPa SSE 77.2 km/h 77.2 km/h 89 % 0.0 mm
01:16 7.1 °C 5.4 °C 1015.8 hPa SE 77.2 km/h 77.2 km/h 89 % 0.0 mm
01:21 7.1 °C 5.4 °C 1015.8 hPa SSE 77.2 km/h 77.2 km/h 89 % 0.0 mm
01:26 7.1 °C 5.5 °C 1015.8 hPa SE 77.2 km/h 77.2 km/h 90 % 0.0 mm
01:31 7.1 °C 5.6 °C 1015.8 hPa ESE 77.2 km/h 77.2 km/h 90 % 0.0 mm
01:36 7.2 °C 5.6 °C 1015.8 hPa SSE 77.2 km/h 77.2 km/h 90 % 0.0 mm
01:41 7.2 °C 5.5 °C 1015.8 hPa South 77.2 km/h 77.2 km/h 89 % 0.0 mm
01:51 7.2 °C 5.6 °C 1016.1 hPa SE 77.2 km/h 77.2 km/h 89 % 0.0 mm
01:56 7.2 °C 5.6 °C 1016.1 hPa SSE 77.2 km/h 77.2 km/h 89 % 0.0 mm
02:01 7.2 °C 5.5 °C 1016.1 hPa SSE 77.2 km/h 77.2 km/h 89 % 0.0 mm
02:06 7.2 °C 5.4 °C 1016.1 hPa SSE 77.2 km/h 77.2 km/h 88 % 0.0 mm
02:11 7.2 °C 5.5 °C 1016.5 hPa SSE 77.2 km/h 77.2 km/h 89 % 0.0 mm
02:16 7.2 °C 5.6 °C 1016.5 hPa South 77.2 km/h 77.2 km/h 90 % 0.0 mm
02:22 7.1 °C 5.6 °C 1016.1 hPa SSE 77.2 km/h 77.2 km/h 90 % 0.0 mm
02:27 7.0 °C 5.6 °C 1016.5 hPa ESE 77.2 km/h 77.2 km/h 91 % 0.0 mm
02:32 6.9 °C 5.7 °C 1016.5 hPa South 77.2 km/h 77.2 km/h 92 % 0.0 mm
02:37 6.9 °C 5.5 °C 1016.5 hPa SE 77.2 km/h 77.2 km/h 91 % 0.0 mm
02:42 6.8 °C 5.4 °C 1016.5 hPa SSE 77.2 km/h 77.2 km/h 91 % 0.0 mm
02:52 6.7 °C 5.3 °C 1016.5 hPa SE 77.2 km/h 77.2 km/h 91 % 0.0 mm
02:57 6.7 °C 5.3 °C 1016.8 hPa SSE 77.2 km/h 77.2 km/h 91 % 0.0 mm
03:07 6.6 °C 5.1 °C 1016.8 hPa SSE 77.2 km/h 77.2 km/h 90 % 0.0 mm
03:12 6.4 °C 4.9 °C 1016.8 hPa SE 77.2 km/h 77.2 km/h 90 % 0.0 mm
03:17 6.4 °C 4.9 °C 1016.8 hPa ESE 77.2 km/h 77.2 km/h 90 % 0.0 mm
03:22 6.5 °C 5.1 °C 1016.8 hPa SSE 77.2 km/h 77.2 km/h 91 % 0.0 mm
03:27 6.5 °C 5.1 °C 1016.8 hPa SE 77.2 km/h 77.2 km/h 91 % 0.0 mm
03:42 6.5 °C 5.3 °C 1017.2 hPa SSE 77.2 km/h 77.2 km/h 92 % 0.0 mm
03:47 6.5 °C 5.4 °C 1017.2 hPa SSE 77.2 km/h 77.2 km/h 93 % 0.3 mm
03:52 6.5 °C 5.4 °C 1017.2 hPa SSE 77.2 km/h 77.2 km/h 93 % 0.5 mm
03:57 6.4 °C 5.6 °C 1017.2 hPa SE 77.2 km/h 77.2 km/h 94 % 0.8 mm
04:03 6.3 °C 5.4 °C 1017.2 hPa SSE 77.2 km/h 77.2 km/h 94 % 0.8 mm
04:13 6.3 °C 5.4 °C 1017.2 hPa South 77.2 km/h 77.2 km/h 94 % 1.0 mm
04:18 6.2 °C 5.3 °C 1017.2 hPa South 77.2 km/h 77.2 km/h 94 % 1.0 mm
04:23 6.2 °C 5.5 °C 1017.2 hPa South 77.2 km/h 77.2 km/h 95 % 1.3 mm
04:33 6.2 °C 5.4 °C 1017.5 hPa South 77.2 km/h   95 % 1.3 mm
04:38 6.1 °C 5.4 °C 1017.5 hPa South 77.2 km/h   95 % 1.3 mm
04:43 6.1 °C 5.3 °C 1017.5 hPa South 77.2 km/h   95 % 1.5 mm
04:48 6.1 °C 5.3 °C 1017.5 hPa South 77.2 km/h 77.2 km/h 95 % 1.5 mm
04:53 6.0 °C 5.3 °C 1017.5 hPa South 77.2 km/h 77.2 km/h 95 % 1.5 mm
04:58 5.9 °C 5.2 °C 1017.5 hPa South 77.2 km/h   95 % 1.3 mm
05:03 5.9 °C 5.2 °C 1017.5 hPa SSE 77.2 km/h 77.2 km/h 95 % 1.3 mm
05:08 5.8 °C 5.1 °C 1017.5 hPa SSE 77.2 km/h 77.2 km/h 95 % 1.3 mm
05:13 5.8 °C 5.1 °C 1017.5 hPa SE 77.2 km/h 77.2 km/h 95 % 1.3 mm
05:18 5.8 °C 5.1 °C 1017.5 hPa South 77.2 km/h 77.2 km/h 95 % 1.3 mm
05:23 5.8 °C 5.1 °C 1017.8 hPa SSE 77.2 km/h 77.2 km/h 95 % 1.0 mm
05:28 5.8 °C 5.1 °C 1017.8 hPa SSE 77.2 km/h 77.2 km/h 95 % 1.0 mm
05:33 5.9 °C 5.0 °C 1017.8 hPa SE 77.2 km/h 77.2 km/h 94 % 1.0 mm
05:38 5.9 °C 5.0 °C 1017.8 hPa SW 77.2 km/h 77.2 km/h 94 % 1.0 mm
05:54 6.0 °C 4.9 °C 1017.8 hPa SSE 77.2 km/h 77.2 km/h 93 % 0.5 mm
05:59 6.0 °C 4.8 °C 1017.8 hPa SSE 77.2 km/h 77.2 km/h 92 % 0.3 mm
06:09 5.9 °C 4.9 °C 1017.8 hPa SSE 77.2 km/h 77.2 km/h 93 % 0.3 mm
06:14 5.9 °C 4.9 °C 1017.8 hPa SSE 77.2 km/h 77.2 km/h 93 % 0.3 mm
06:19 6.0 °C 4.9 °C 1018.2 hPa SSE 77.2 km/h 77.2 km/h 93 % 0.3 mm
06:29 5.9 °C 5.1 °C 1018.2 hPa South 77.2 km/h 77.2 km/h 94 % 0.3 mm
06:34 5.9 °C 5.1 °C 1018.2 hPa SSE 77.2 km/h 77.2 km/h 94 % 0.3 mm
06:39 5.9 °C 5.0 °C 1018.2 hPa South 77.2 km/h 77.2 km/h 94 % 0.0 mm
06:44 5.9 °C 5.0 °C 1018.2 hPa SSE 77.2 km/h 77.2 km/h 94 % 0.0 mm
06:49 5.9 °C 5.1 °C 1018.2 hPa SSE 77.2 km/h 77.2 km/h 94 % 0.0 mm
06:54 6.0 °C 4.9 °C 1018.2 hPa SSE 77.2 km/h 77.2 km/h 93 % 0.0 mm
06:59 6.1 °C 5.1 °C 1018.5 hPa South 77.2 km/h 77.2 km/h 93 % 0.0 mm
07:04 6.2 °C 4.9 °C 1018.5 hPa South 77.2 km/h 77.2 km/h 92 % 0.0 mm
07:09 6.2 °C 5.0 °C 1018.5 hPa SSE 77.2 km/h 77.2 km/h 92 % 0.0 mm
07:14 6.3 °C 4.9 °C 1018.5 hPa South 77.2 km/h 77.2 km/h 91 % 0.0 mm
07:19 6.3 °C 4.9 °C 1018.5 hPa SSW 77.2 km/h 77.2 km/h 91 % 0.0 mm
07:25 6.3 °C 4.8 °C 1018.5 hPa South 77.2 km/h 77.2 km/h 90 % 0.0 mm
07:30 6.3 °C 4.8 °C 1018.5 hPa SSE 77.2 km/h 77.2 km/h 90 % 0.0 mm
07:35 6.3 °C 4.8 °C 1018.5 hPa SSE 77.2 km/h 77.2 km/h 90 % 0.0 mm
07:40 6.2 °C 4.7 °C 1018.5 hPa SE 77.2 km/h 77.2 km/h 90 % 0.0 mm
07:45 6.2 °C 4.7 °C 1018.5 hPa SSE 77.2 km/h 77.2 km/h 90 % 0.0 mm
07:50 6.2 °C 4.7 °C 1018.8 hPa SSE 77.2 km/h 77.2 km/h 90 % 0.0 mm
07:55 6.2 °C 4.7 °C 1018.8 hPa SSE 77.2 km/h 77.2 km/h 90 % 0.0 mm
08:00 6.2 °C 4.7 °C 1019.2 hPa SSE 77.2 km/h 77.2 km/h 90 % 0.0 mm
08:05 6.2 °C 4.9 °C 1019.2 hPa SSE 77.2 km/h 77.2 km/h 91 % 0.0 mm
08:10 6.3 °C 4.8 °C 1019.2 hPa SSE 77.2 km/h 77.2 km/h 90 % 0.0 mm
08:15 6.4 °C 4.9 °C 1019.2 hPa SSE 77.2 km/h 77.2 km/h 90 % 0.0 mm
08:20 6.4 °C 4.8 °C 1019.5 hPa SSW 77.2 km/h 77.2 km/h 89 % 0.0 mm
08:25 6.4 °C 4.8 °C 1019.5 hPa SE 77.2 km/h 77.2 km/h 89 % 0.0 mm
08:30 6.5 °C 4.8 °C 1019.9 hPa South 77.2 km/h 77.2 km/h 89 % 0.0 mm
08:35 6.6 °C 4.9 °C 1019.9 hPa SSE 77.2 km/h 77.2 km/h 89 % 0.0 mm
08:40 6.6 °C 4.9 °C 1019.9 hPa SSE 77.2 km/h 77.2 km/h 89 % 0.0 mm
08:45 6.6 °C 4.9 °C 1019.9 hPa South 77.2 km/h 77.2 km/h 89 % 0.0 mm
08:50 6.6 °C 4.9 °C 1019.9 hPa South 77.2 km/h 77.2 km/h 89 % 0.0 mm
08:55 6.6 °C 4.8 °C 1019.9 hPa SSE 77.2 km/h 77.2 km/h 88 % 0.0 mm
09:00 6.6 °C 4.7 °C 1020.2 hPa SSW 77.2 km/h 77.2 km/h 88 % 0.0 mm
09:05 6.6 °C 4.7 °C 1020.2 hPa South 77.2 km/h 77.2 km/h 88 % 0.0 mm
09:10 6.6 °C 4.7 °C 1020.2 hPa SSE 77.2 km/h 77.2 km/h 88 % 0.0 mm
09:15 6.5 °C 4.8 °C 1020.5 hPa SSE 77.2 km/h 77.2 km/h 89 % 0.0 mm
09:21 6.5 °C 4.8 °C 1020.5 hPa SSE 77.2 km/h 77.2 km/h 89 % 0.0 mm
09:26 6.6 °C 4.7 °C 1020.5 hPa SSE 77.2 km/h 77.2 km/h 88 % 0.0 mm
09:31 6.6 °C 4.8 °C 1020.5 hPa South 77.2 km/h 77.2 km/h 88 % 0.0 mm
09:36 6.6 °C 4.8 °C 1020.9 hPa SSE 77.2 km/h 77.2 km/h 88 % 0.0 mm
09:41 6.7 °C 4.8 °C 1020.9 hPa South 77.2 km/h 77.2 km/h 88 % 0.0 mm
09:46 6.8 °C 5.0 °C 1020.9 hPa South 77.2 km/h 77.2 km/h 88 % 0.0 mm
09:51 7.0 °C 5.0 °C 1020.9 hPa South 77.2 km/h 77.2 km/h 87 % 0.0 mm
09:56 7.1 °C 5.1 °C 1021.2 hPa SSW 77.2 km/h 77.2 km/h 87 % 0.0 mm
10:01 7.1 °C 4.9 °C 1021.2 hPa South 77.2 km/h 77.2 km/h 86 % 0.0 mm
10:06 7.2 °C 5.0 °C 1021.2 hPa SSE 77.2 km/h 77.2 km/h 86 % 0.0 mm
10:11 7.2 °C 5.1 °C 1021.2 hPa SSE 77.2 km/h 77.2 km/h 86 % 0.0 mm
10:16 7.2 °C 5.2 °C 1021.2 hPa SSW 77.2 km/h 77.2 km/h 87 % 0.0 mm
10:21 7.2 °C 5.0 °C 1021.2 hPa South 77.2 km/h 77.2 km/h 86 % 0.0 mm
10:26 7.1 °C 4.9 °C 1021.2 hPa South 77.2 km/h 77.2 km/h 86 % 0.0 mm
10:31 7.1 °C 4.9 °C 1021.2 hPa SSE 77.2 km/h 77.2 km/h 86 % 0.0 mm
10:36 7.1 °C 5.1 °C 1021.6 hPa South 77.2 km/h 77.2 km/h 87 % 0.0 mm
10:41 7.1 °C 5.1 °C 1021.6 hPa South 77.2 km/h 77.2 km/h 87 % 0.0 mm
10:46 7.3 °C 5.2 °C 1021.6 hPa South 77.2 km/h 77.2 km/h 86 % 0.0 mm
10:51 7.6 °C 5.2 °C 1021.6 hPa SSW 77.2 km/h 77.2 km/h 85 % 0.0 mm
10:56 7.5 °C 4.9 °C 1021.9 hPa South 77.2 km/h 77.2 km/h 84 % 0.0 mm
11:01 7.4 °C 5.1 °C 1021.9 hPa South 77.2 km/h 77.2 km/h 85 % 0.0 mm
11:07 7.5 °C 5.2 °C 1021.9 hPa SSE 77.2 km/h 77.2 km/h 85 % 0.0 mm
11:12 7.8 °C 5.4 °C 1021.9 hPa SSW 77.2 km/h 77.2 km/h 85 % 0.0 mm
11:17 7.9 °C 5.4 °C 1021.9 hPa SSW 77.2 km/h 77.2 km/h 84 % 0.0 mm
11:22 8.1 °C 5.4 °C 1021.9 hPa South 77.2 km/h 77.2 km/h 83 % 0.0 mm
11:27 8.3 °C 5.6 °C 1022.2 hPa SSW 77.2 km/h 77.2 km/h 83 % 0.0 mm
11:32 8.4 °C 5.6 °C 1022.2 hPa South 77.2 km/h 77.2 km/h 82 % 0.0 mm
11:37 8.6 °C 5.5 °C 1022.2 hPa South 77.2 km/h 77.2 km/h 81 % 0.0 mm
11:38 8.6 °C 5.6 °C 1022.2 hPa SSW 77.2 km/h 77.2 km/h 81 % 0.0 mm
11:43 8.7 °C 5.4 °C 1022.2 hPa SSW 77.2 km/h 77.2 km/h 80 % 0.0 mm
11:49 8.9 °C 5.4 °C 1022.2 hPa SSE 77.2 km/h 77.2 km/h 79 % 0.0 mm
11:54 9.0 °C 5.6 °C 1022.6 hPa SSE 77.2 km/h 77.2 km/h 79 % 0.0 mm
11:59 9.0 °C 5.6 °C 1022.6 hPa SSE 77.2 km/h 77.2 km/h 79 % 0.0 mm
12:04 8.9 °C 5.7 °C 1022.6 hPa SSE 77.2 km/h 77.2 km/h 80 % 0.0 mm
12:09 8.9 °C 5.5 °C 1022.6 hPa SSW 77.2 km/h 77.2 km/h 79 % 0.0 mm
12:14 8.9 °C 5.3 °C 1022.9 hPa SSW 77.2 km/h 77.2 km/h 78 % 0.0 mm
12:19 8.8 °C 5.0 °C 1022.9 hPa SW 77.2 km/h 77.2 km/h 77 % 0.0 mm
12:24 8.8 °C 5.2 °C 1022.9 hPa SE 77.2 km/h 77.2 km/h 78 % 0.0 mm
12:29 8.7 °C 5.1 °C 1022.9 hPa SSW 77.2 km/h 77.2 km/h 78 % 0.0 mm
12:34 8.8 °C 5.2 °C 1022.9 hPa WSW 77.2 km/h 77.2 km/h 78 % 0.0 mm
12:39 8.8 °C 5.2 °C 1023.2 hPa SW 77.2 km/h 77.2 km/h 78 % 0.0 mm
12:44 8.7 °C 5.1 °C 1023.2 hPa SSW 77.2 km/h 77.2 km/h 78 % 0.0 mm
12:49 8.7 °C 5.1 °C 1023.2 hPa SSE 77.2 km/h 77.2 km/h 78 % 0.0 mm
12:54 8.9 °C 5.3 °C 1023.2 hPa SW 77.2 km/h 77.2 km/h 78 % 0.0 mm
12:59 9.2 °C 5.3 °C 1023.2 hPa SSE 77.2 km/h 77.2 km/h 77 % 0.0 mm
13:04 9.3 °C 5.3 °C 1023.2 hPa SW 77.2 km/h 77.2 km/h 76 % 0.0 mm
13:09 9.3 °C 5.3 °C 1023.6 hPa SSE 77.2 km/h 77.2 km/h 76 % 0.0 mm
13:14 9.3 °C 5.3 °C 1023.6 hPa South 77.2 km/h 77.2 km/h 76 % 0.0 mm
13:19 9.4 °C 5.4 °C 1023.6 hPa ESE 77.2 km/h 77.2 km/h 76 % 0.0 mm
13:24 9.4 °C 5.2 °C 1023.6 hPa South 77.2 km/h 77.2 km/h 75 % 0.0 mm
13:30 9.3 °C 5.1 °C 1023.6 hPa SW 77.2 km/h 77.2 km/h 75 % 0.0 mm
13:35 9.1 °C 4.9 °C 1023.6 hPa SW 77.2 km/h 77.2 km/h 75 % 0.0 mm
13:40 9.1 °C 4.7 °C 1023.6 hPa SSE 77.2 km/h 77.2 km/h 74 % 0.0 mm
13:45 9.1 °C 4.8 °C 1023.6 hPa South 77.2 km/h 77.2 km/h 75 % 0.0 mm
13:50 9.0 °C 4.8 °C 1023.6 hPa SSW 77.2 km/h 77.2 km/h 75 % 0.0 mm
13:55 8.9 °C 5.1 °C 1023.6 hPa South 77.2 km/h 77.2 km/h 77 % 0.0 mm
14:00 8.9 °C 5.3 °C 1023.6 hPa SSW 77.2 km/h 77.2 km/h 78 % 0.0 mm
14:01 8.9 °C 5.3 °C 1023.6 hPa SSW 77.2 km/h 77.2 km/h 78 % 0.0 mm
14:06 8.8 °C 5.2 °C 1023.9 hPa South 77.2 km/h 77.2 km/h 78 % 0.0 mm
14:11 8.8 °C 5.2 °C 1023.9 hPa South 77.2 km/h 77.2 km/h 78 % 0.0 mm
14:16 8.7 °C 5.1 °C 1023.9 hPa SSE 77.2 km/h 77.2 km/h 78 % 0.0 mm
14:21 8.6 °C 4.9 °C 1023.9 hPa SW 77.2 km/h 77.2 km/h 78 % 0.0 mm
14:26 8.5 °C 4.9 °C 1023.9 hPa SSE 77.2 km/h 77.2 km/h 78 % 0.0 mm
14:31 8.4 °C 4.8 °C 1023.9 hPa South 77.2 km/h 77.2 km/h 78 % 0.0 mm
14:36 8.5 °C 5.1 °C 1024.3 hPa SSE 77.2 km/h 77.2 km/h 79 % 0.0 mm
14:41 8.5 °C 4.9 °C 1023.9 hPa SSE 77.2 km/h 77.2 km/h 78 % 0.0 mm
14:46 8.6 °C 4.8 °C 1023.9 hPa South 77.2 km/h 77.2 km/h 77 % 0.0 mm
14:51 8.6 °C 5.0 °C 1024.3 hPa SSE 77.2 km/h 77.2 km/h 78 % 0.0 mm
14:56 8.6 °C 4.8 °C 1024.3 hPa South 77.2 km/h 77.2 km/h 77 % 0.0 mm
15:01 8.6 °C 4.9 °C 1024.3 hPa South 77.2 km/h 77.2 km/h 78 % 0.0 mm
15:06 8.5 °C 5.1 °C 1024.3 hPa South 77.2 km/h 77.2 km/h 79 % 0.0 mm
15:11 8.3 °C 4.9 °C 1024.3 hPa SSE 77.2 km/h 77.2 km/h 79 % 0.0 mm
15:16 8.2 °C 4.8 °C 1024.3 hPa South 77.2 km/h 77.2 km/h 79 % 0.0 mm
15:21 8.1 °C 4.9 °C 1024.3 hPa SSE 77.2 km/h 77.2 km/h 80 % 0.0 mm
15:26 8.0 °C 4.8 °C 1024.3 hPa SSE 77.2 km/h 77.2 km/h 80 % 0.0 mm
15:31 7.9 °C 4.7 °C 1024.3 hPa SSE 77.2 km/h 77.2 km/h 80 % 0.0 mm
15:37 7.8 °C 4.8 °C 1024.3 hPa South 77.2 km/h 77.2 km/h 81 % 0.0 mm
15:42 7.8 °C 4.8 °C 1024.3 hPa South 77.2 km/h 77.2 km/h 81 % 0.0 mm
15:47 7.8 °C 4.7 °C 1024.3 hPa SSE 77.2 km/h 77.2 km/h 81 % 0.0 mm
15:52 7.8 °C 4.7 °C 1024.3 hPa SSE 77.2 km/h 77.2 km/h 81 % 0.0 mm
15:57 7.8 °C 4.7 °C 1024.3 hPa South 77.2 km/h 77.2 km/h 81 % 0.0 mm
16:02 7.8 °C 4.7 °C 1024.3 hPa SSE 77.2 km/h 77.2 km/h 81 % 0.0 mm
16:07 7.8 °C 4.7 °C 1024.3 hPa SSE 77.2 km/h 77.2 km/h 81 % 0.0 mm
16:12 7.8 °C 4.7 °C 1024.3 hPa SE 77.2 km/h 77.2 km/h 81 % 0.0 mm
16:17 7.7 °C 4.8 °C 1024.6 hPa South 77.2 km/h 77.2 km/h 82 % 0.0 mm
16:22 7.7 °C 4.8 °C 1024.6 hPa SSE 77.2 km/h 77.2 km/h 82 % 0.0 mm
16:27 7.7 °C 4.6 °C 1024.6 hPa SSE 77.2 km/h 77.2 km/h 81 % 0.0 mm
16:32 7.6 °C 4.7 °C 1024.6 hPa SSE 77.2 km/h 77.2 km/h 82 % 0.0 mm
16:37 7.6 °C 4.7 °C 1024.6 hPa SSE 77.2 km/h 77.2 km/h 82 % 0.0 mm
16:42 7.4 °C 4.7 °C 1024.6 hPa SSE 77.2 km/h 77.2 km/h 83 % 0.0 mm
16:47 7.4 °C 4.7 °C 1024.6 hPa SSE 77.2 km/h 77.2 km/h 83 % 0.0 mm
16:52 7.3 °C 4.8 °C 1024.6 hPa SSE 77.2 km/h 77.2 km/h 84 % 0.0 mm
16:57 7.2 °C 4.7 °C 1024.6 hPa SSE 77.2 km/h 77.2 km/h 84 % 0.0 mm
17:02 7.1 °C 4.6 °C 1024.6 hPa SSE 77.2 km/h 77.2 km/h 84 % 0.0 mm
17:07 7.1 °C 4.6 °C 1024.6 hPa SSE 77.2 km/h 77.2 km/h 84 % 0.0 mm
17:13 7.1 °C 4.6 °C 1024.6 hPa SSE 77.2 km/h 77.2 km/h 84 % 0.0 mm
17:18 7.0 °C 4.5 °C 1024.6 hPa SSE 77.2 km/h 77.2 km/h 84 % 0.0 mm
17:23 6.9 °C 4.4 °C 1024.6 hPa SSE 77.2 km/h 77.2 km/h 84 % 0.0 mm
17:28 6.8 °C 4.3 °C 1024.6 hPa SSE 77.2 km/h 77.2 km/h 84 % 0.0 mm
17:33 6.7 °C 4.2 °C 1024.6 hPa SSE 77.2 km/h 77.2 km/h 84 % 0.0 mm
17:38 6.7 °C 4.3 °C 1024.6 hPa SSE 77.2 km/h   85 % 0.0 mm
17:43 6.6 °C 4.4 °C 1024.6 hPa SSE 77.2 km/h   86 % 0.0 mm
17:48 6.6 °C 4.4 °C 1024.6 hPa SSE 77.2 km/h   86 % 0.0 mm
17:53 6.5 °C 4.3 °C 1024.6 hPa SSE 77.2 km/h   86 % 0.0 mm
18:03 6.4 °C 4.4 °C 1024.6 hPa SSE 77.2 km/h   87 % 0.0 mm
18:13 6.4 °C 4.4 °C 1024.6 hPa SSE 77.2 km/h   87 % 0.0 mm
18:18 6.3 °C 4.3 °C 1024.6 hPa SSE 77.2 km/h 77.2 km/h 87 % 0.0 mm
18:23 6.3 °C 4.5 °C 1024.6 hPa SSE 77.2 km/h   88 % 0.0 mm
18:28 6.4 °C 4.6 °C 1024.6 hPa ESE 77.2 km/h 77.2 km/h 88 % 0.0 mm
18:33 6.5 °C 4.5 °C 1024.6 hPa ESE 77.2 km/h 77.2 km/h 87 % 0.0 mm
18:43 6.7 °C 4.5 °C 1024.6 hPa SSE 77.2 km/h 77.2 km/h 86 % 0.0 mm
18:49 6.8 °C 4.5 °C 1024.6 hPa South 77.2 km/h 77.2 km/h 85 % 0.0 mm
18:59 6.9 °C 4.4 °C 1024.6 hPa SSE 77.2 km/h 77.2 km/h 84 % 0.0 mm
19:04 6.9 °C 4.4 °C 1024.6 hPa SSE 77.2 km/h 77.2 km/h 84 % 0.0 mm
19:09 6.8 °C 4.4 °C 1024.6 hPa SSE 77.2 km/h 77.2 km/h 85 % 0.0 mm
19:14 6.7 °C 4.4 °C 1024.6 hPa SSE 77.2 km/h 77.2 km/h 85 % 0.0 mm
19:19 6.6 °C 4.3 °C 1024.6 hPa SSE 77.2 km/h 77.2 km/h 85 % 0.0 mm
19:24 6.6 °C 4.3 °C 1024.6 hPa SSE 77.2 km/h 77.2 km/h 85 % 0.0 mm
19:29 6.6 °C 4.2 °C 1024.9 hPa SSE 77.2 km/h 77.2 km/h 85 % 0.0 mm
19:34 6.6 °C 4.2 °C 1024.9 hPa SSE 77.2 km/h 77.2 km/h 85 % 0.0 mm
19:39 6.6 °C 4.3 °C 1024.9 hPa South 77.2 km/h 77.2 km/h 85 % 0.0 mm
19:49 6.7 °C 4.4 °C 1024.9 hPa South 77.2 km/h   85 % 0.0 mm
19:54 6.7 °C 4.4 °C 1024.6 hPa South 77.2 km/h   85 % 0.0 mm
19:59 6.7 °C 4.4 °C 1024.6 hPa South 77.2 km/h   85 % 0.0 mm
20:04 6.7 °C 4.3 °C 1024.6 hPa South 77.2 km/h 77.2 km/h 85 % 0.0 mm
20:09 6.7 °C 4.4 °C 1024.6 hPa SSE 77.2 km/h 77.2 km/h 85 % 0.0 mm
20:14 6.8 °C 4.7 °C 1024.6 hPa East 77.2 km/h 77.2 km/h 86 % 0.0 mm
20:19 6.9 °C 4.9 °C 1024.6 hPa SE 77.2 km/h 77.2 km/h 87 % 0.0 mm
20:24 7.0 °C 5.2 °C 1024.6 hPa ESE 77.2 km/h 77.2 km/h 88 % 0.0 mm
20:30 6.9 °C 5.3 °C 1024.6 hPa ESE 77.2 km/h 77.2 km/h 89 % 0.0 mm
20:35 6.9 °C 5.3 °C 1024.6 hPa ESE 77.2 km/h   89 % 0.0 mm
20:40 6.9 °C 5.4 °C 1024.6 hPa ESE 77.2 km/h 77.2 km/h 90 % 0.0 mm
20:45 6.9 °C 5.4 °C 1024.6 hPa ESE 77.2 km/h 77.2 km/h 90 % 0.0 mm
20:50 6.9 °C 5.4 °C 1024.6 hPa SE 77.2 km/h 77.2 km/h 90 % 0.0 mm
20:55 6.9 °C 5.6 °C 1024.6 hPa ESE 77.2 km/h 77.2 km/h 91 % 0.0 mm
21:05 7.0 °C 5.6 °C 1024.6 hPa ESE 77.2 km/h 77.2 km/h 91 % 0.0 mm
21:10 7.0 °C 5.6 °C 1024.3 hPa East 77.2 km/h 77.2 km/h 91 % 0.0 mm
21:15 7.0 °C 5.6 °C 1024.3 hPa SE 77.2 km/h 77.2 km/h 91 % 0.0 mm
21:20 7.1 °C 5.7 °C 1024.6 hPa ESE 77.2 km/h 77.2 km/h 91 % 0.0 mm
21:25 7.0 °C 5.6 °C 1024.6 hPa ESE 77.2 km/h 77.2 km/h 91 % 0.0 mm
21:30 6.9 °C 5.6 °C 1024.6 hPa East 77.2 km/h 77.2 km/h 91 % 0.0 mm
21:35 6.9 °C 5.5 °C 1024.6 hPa ESE 77.2 km/h 77.2 km/h 91 % 0.0 mm
21:40 6.8 °C 5.4 °C 1024.3 hPa ESE 77.2 km/h 77.2 km/h 91 % 0.0 mm
21:50 6.7 °C 5.3 °C 1024.3 hPa East 77.2 km/h   91 % 0.0 mm
21:55 6.4 °C 4.9 °C 1024.3 hPa East 77.2 km/h 77.2 km/h 90 % 0.0 mm
22:01 6.1 °C 4.6 °C 1024.3 hPa East 77.2 km/h 77.2 km/h 90 % 0.0 mm
22:11 5.6 °C 4.3 °C 1024.3 hPa NE 77.2 km/h 77.2 km/h 91 % 0.0 mm
22:16 5.5 °C 4.3 °C 1024.6 hPa NE 77.2 km/h 77.2 km/h 92 % 0.0 mm
22:21 5.4 °C 4.2 °C 1024.6 hPa NE 77.2 km/h 77.2 km/h 92 % 0.0 mm
22:26 5.4 °C 4.2 °C 1024.6 hPa NE 77.2 km/h 77.2 km/h 92 % 0.0 mm
22:31 5.4 °C 4.2 °C 1024.3 hPa NE 77.2 km/h   92 % 0.0 mm
22:36 5.5 °C 4.4 °C 1024.3 hPa NE 77.2 km/h 77.2 km/h 93 % 0.0 mm
22:41 5.6 °C 4.3 °C 1024.3 hPa East 77.2 km/h 77.2 km/h 92 % 0.0 mm
22:46 5.7 °C 4.7 °C 1024.3 hPa ENE 77.2 km/h 77.2 km/h 93 % 0.0 mm
22:51 5.8 °C 4.6 °C 1024.3 hPa ENE 77.2 km/h 77.2 km/h 92 % 0.0 mm
23:01 5.7 °C 4.4 °C 1024.3 hPa ENE 77.2 km/h 77.2 km/h 91 % 0.0 mm
23:06 5.7 °C 4.5 °C 1024.3 hPa ENE 77.2 km/h   92 % 0.0 mm
23:11 5.7 °C 4.4 °C 1024.3 hPa ENE 77.2 km/h   92 % 0.0 mm
23:16 5.7 °C 4.4 °C 1024.3 hPa ENE 77.2 km/h   92 % 0.0 mm
23:21 5.7 °C 4.5 °C 1024.3 hPa ENE 77.2 km/h 77.2 km/h 92 % 0.0 mm
23:31 5.8 °C 4.5 °C 1024.6 hPa East 77.2 km/h 77.2 km/h 91 % 0.0 mm
23:36 5.9 °C 4.6 °C 1024.3 hPa ENE 77.2 km/h 77.2 km/h 91 % 0.0 mm
23:41 5.9 °C 4.4 °C 1024.3 hPa ENE 77.2 km/h   90 % 0.0 mm
23:46 5.9 °C 4.4 °C 1024.3 hPa ENE 77.2 km/h 77.2 km/h 90 % 0.0 mm
Ladner Weather
Compliments of Weather Underground - 2.25 mb

Script developed by  Jim McMurry - jmcmurry@mwt.net Adapted for the template by  Wim van der Kuil - Leuven-Template.eu